Regional Weather Roundup
Issued by NWS New Orleans/Baton Rouge, LA

Home | Current Version | Previous Version | Graphics & Text | Print | Product List | Glossary On
Versions: 1 2 3 4 5 6 7 8 9 10 11 12 13 14 15 16 17 18 19 20 21 22 23 24 25 26 27 28 29 30 31 32 33 34 35 36 37 38 39 40 41 42 43 44 45 46 47 48 49 50
284
ASUS44 KLIX 200505
RWRLIX
NEW ORLEANS REGIONAL WEATHER ROUNDUP
NATIONAL WEATHER SERVICE NEW ORLEANS LA
1100 PM CST FRI DEC 19 2014

NOTE: "FAIR" INDICATES FEW OR NO CLOUDS BELOW 12,000 FEET WITH NO
      SIGNIFICANT WEATHER AND/OR OBSTRUCTIONS TO VISIBILITY.
      SKY/WX - SKY CONDITION AND SIGNIFICANT WEATHER.
      TMP - AIR TEMPERATURE.     DP    - DEWPOINT TEMPERATURE.
      RH  - RELATIVE HUMIDITY.   PRES  - PRESSURE.
      HI  - HEAT INDEX.          WCI   - WIND CHILL INDEX.

*  THESE STATIONS ARE NOT NWS OR FAA STATIONS AND ARE NOT UNDER
   NWS QUALITY CONTROL.

LAZ038-040-048-061>063-065>067-069-200600-
SOUTHEAST LOUISIANA

CITY           SKY/WX    TMP DP  RH WIND       PRES   REMARKS
N.O. AUDUBON     N/A     49  49 100 MISG        N/A
N.O. INTL ARPT RAIN      50  48  93 NE16      30.07F FOG
N.O. LAKEFRONT HVY RAIN  52  48  86 NE20      30.09S FOG
N.O. DOWNTOWN* CLOUDY    50  45  81 NE8       30.08F
SLIDELL        LGT RAIN  49  46  90 NE5       30.09S
BATON ROUGE    CLOUDY    49  47  93 NE9       30.09F
BOOTHVILLE     LGT RAIN  59  58  96 NE9       30.04F
BELLE CHASSE   LGT RAIN  50  49  96 NE14      30.07F
BOGALUSA*      DRIZZLE   49  46  88 N3        30.13S
GALLIANO*      RAIN      55  54  96 MISG      30.05F
NEW ROADS*     CLOUDY    47  47  97 N9        30.12F
GONZALES*      DRIZZLE   50  50 100 NE7       30.08F
HAMMOND*       NOT AVBL
HOUMA*         RAIN      50  50  98 NE12      30.06F
PORT FOURCHON* CLOUDY    57  55  94 NE17G23   30.06F

$$

MSZ070-080>082-200600-
SOUTHERN MISSISSIPPI

CITY           SKY/WX    TMP DP  RH WIND       PRES   REMARKS
MCCOMB         LGT RAIN  47  44  90 N8        30.13R
GULFPORT       LGT RAIN  47  45  93 NE12      30.09F
BILOXI         CLOUDY    47  47 100 NE10      30.10S
PASCAGOULA     LGT RAIN  48  46  93 N8        30.11S

$$

COASTAL OBSERVATIONS
LAKE AND NEARSHORE STATIONS

STATION/POSITION TIME  TEMP    WIND        PRES    WAVE
                       AIR SEA DIR/SP/G            HT/PER
                 (UTC) (F)     (DEG/KT/KT) (MB)    (FT/S)
PASCAGOULA       0500   49      40/ 11/ 14 1018.4
WAVELAND YACHT   0500   48      50/ 12/ 14 1018.0
GRAND ISLE       0500   58 62   60/ 12/ 17 1017.4
SOUTHWEST PASS   0500   58                 1016.6
NEW CANAL        0500   51 56   50/ 19/ 23 1018.6
SHELL BEACH      0500   52 58   40/ 20/ 22 1018.1

OFFSHORE STATIONS

STATION/POSITION TIME  TEMP    WIND        PRES    WAVE
                       AIR SEA DIR/SP/G            HT/PER
                 (UTC) (F)     (DEG/KT/KT) (MB)    (FT/S)
64 S DAUPHIN ISL 0500   68 75  110/ 19/ 23 1016.5    4/ 5

$$




USA.gov is the U.S. government's official web portal to all federal, state and local government web resources and services.